TimeEST,TemperatureF,Dew PointF,Humidity,Sea Level PressureIn,VisibilityMPH,Wind Direction,Wind SpeedMPH,Gust SpeedMPH,PrecipitationIn,Events,Conditions,WindDirDegrees,DateUTC
12:15 AM,25.3,14.2,63,30.27,10.0,Calm,Calm,-,N/A,,Clear,0,2012-12-31 05:15:00
12:35 AM,24.4,14.0,65,30.27,10.0,Calm,Calm,-,N/A,,Clear,0,2012-12-31 05:35:00
12:55 AM,26.2,13.3,58,30.26,10.0,Calm,Calm,-,N/A,,Clear,0,2012-12-31 05:55:00
1:15 AM,25.5,13.6,61,30.25,10.0,WSW,5.8,-,N/A,,Clear,240,2012-12-31 06:15:00
1:35 AM,24.4,14.7,67,30.25,10.0,WSW,4.6,-,N/A,,Clear,250,2012-12-31 06:35:00
1:55 AM,25.0,14.4,64,30.25,10.0,SSW,3.5,-,N/A,,Clear,210,2012-12-31 06:55:00
2:15 AM,24.4,14.2,65,30.25,10.0,SW,3.5,-,N/A,,Clear,230,2012-12-31 07:15:00
2:35 AM,24.8,14.4,65,30.25,10.0,SW,4.6,-,N/A,,Clear,230,2012-12-31 07:35:00
2:55 AM,24.6,14.4,65,30.26,10.0,SW,3.5,-,N/A,,Clear,230,2012-12-31 07:55:00
3:15 AM,24.3,14.4,66,30.26,10.0,Calm,Calm,-,N/A,,Clear,0,2012-12-31 08:15:00
3:35 AM,24.4,14.4,66,30.25,10.0,Calm,Calm,-,N/A,,Clear,0,2012-12-31 08:35:00
3:55 AM,25.7,14.0,61,30.25,10.0,Calm,Calm,-,N/A,,Clear,0,2012-12-31 08:55:00
4:15 AM,25.2,15.8,68,30.24,10.0,Calm,Calm,-,N/A,,Clear,0,2012-12-31 09:15:00
4:35 AM,25.2,15.6,67,30.24,10.0,Calm,Calm,-,N/A,,Clear,0,2012-12-31 09:35:00
4:55 AM,24.8,15.6,68,30.23,10.0,Calm,Calm,-,N/A,,Clear,0,2012-12-31 09:55:00
5:15 AM,28.0,14.9,58,30.23,10.0,Calm,Calm,-,N/A,,Clear,0,2012-12-31 10:15:00
5:35 AM,27.7,16.0,62,30.23,10.0,WSW,3.5,-,N/A,,Clear,250,2012-12-31 10:35:00
5:55 AM,28.2,15.6,59,30.22,10.0,WSW,3.5,-,N/A,,Clear,240,2012-12-31 10:55:00
6:15 AM,27.7,16.2,62,30.23,10.0,West,3.5,-,N/A,,Clear,280,2012-12-31 11:15:00
6:35 AM,27.3,17.1,65,30.23,10.0,Calm,Calm,-,N/A,,Clear,0,2012-12-31 11:35:00
6:55 AM,28.4,16.0,60,30.23,10.0,Calm,Calm,-,N/A,,Clear,0,2012-12-31 11:55:00
7:35 AM,27.3,16.0,62,30.23,10.0,Calm,Calm,-,N/A,,Clear,0,2012-12-31 12:35:00
7:55 AM,38.5,0.7,20,30.22,10.0,SW,10.4,-,N/A,,Clear,230,2012-12-31 12:55:00
8:35 AM,34.3,7.7,33,30.23,10.0,SW,5.8,-,N/A,,Clear,220,2012-12-31 13:35:00
9:15 AM,39.7,-6.3,14,30.21,10.0,SW,8.1,-,N/A,,Clear,230,2012-12-31 14:15:00
9:35 AM,39.4,-5.4,15,30.22,10.0,SSW,3.5,-,N/A,,Clear,200,2012-12-31 14:35:00
9:55 AM,40.1,-7.4,13,30.22,10.0,SW,6.9,16.1,N/A,,Mostly Cloudy,230,2012-12-31 14:55:00
10:15 AM,39.9,-7.6,13,30.22,10.0,West,9.2,-,N/A,,Overcast,260,2012-12-31 15:15:00
10:35 AM,40.5,-8.0,13,30.24,10.0,West,11.5,-,N/A,,Overcast,260,2012-12-31 15:35:00
10:55 AM,41.0,-8.9,12,30.23,10.0,West,12.7,-,N/A,,Mostly Cloudy,270,2012-12-31 15:55:00
11:15 AM,41.4,-8.1,12,30.22,10.0,West,10.4,-,N/A,,Scattered Clouds,270,2012-12-31 16:15:00
11:35 AM,41.9,-7.6,12,30.20,10.0,West,11.5,16.1,N/A,,Scattered Clouds,270,2012-12-31 16:35:00
11:55 AM,42.1,-7.4,12,30.19,10.0,West,12.7,20.7,N/A,,Scattered Clouds,270,2012-12-31 16:55:00
12:15 PM,42.1,-5.8,13,30.18,10.0,West,15.0,24.2,N/A,,Clear,270,2012-12-31 17:15:00
12:35 PM,42.1,-6.3,13,30.16,10.0,West,12.7,18.4,N/A,,Clear,270,2012-12-31 17:35:00
12:55 PM,42.8,-7.2,12,30.16,10.0,West,15.0,19.6,N/A,,Scattered Clouds,270,2012-12-31 17:55:00
1:15 PM,43.0,-8.3,11,30.14,10.0,West,12.7,-,N/A,,Mostly Cloudy,260,2012-12-31 18:15:00
1:35 PM,43.0,-7.1,12,30.13,10.0,West,10.4,-,N/A,,Mostly Cloudy,270,2012-12-31 18:35:00
1:55 PM,42.6,-6.0,13,30.13,10.0,West,9.2,-,N/A,,Mostly Cloudy,270,2012-12-31 18:55:00
2:35 PM,42.1,-5.1,14,30.13,10.0,West,10.4,-,N/A,,Overcast,280,2012-12-31 19:35:00
2:55 PM,41.9,-4.5,14,30.12,10.0,WNW,12.7,-,N/A,,Overcast,290,2012-12-31 19:55:00
3:15 PM,41.5,-4.0,15,30.12,10.0,WNW,9.2,-,N/A,,Overcast,290,2012-12-31 20:15:00
3:35 PM,41.4,-4.4,15,30.13,10.0,West,16.1,-,N/A,,Overcast,280,2012-12-31 20:35:00
3:55 PM,41.2,-7.6,13,30.14,10.0,WNW,11.5,-,N/A,,Overcast,290,2012-12-31 20:55:00
4:15 PM,40.6,-10.3,11,30.12,10.0,West,17.3,20.7,N/A,,Overcast,280,2012-12-31 21:15:00
4:35 PM,40.5,-9.2,12,30.11,10.0,West,16.1,-,N/A,,Overcast,270,2012-12-31 21:35:00
4:55 PM,41.0,-9.2,12,30.11,10.0,West,12.7,-,N/A,,Overcast,270,2012-12-31 21:55:00
5:15 PM,41.0,-6.9,13,30.13,10.0,West,16.1,-,N/A,,Overcast,280,2012-12-31 22:15:00
5:35 PM,41.0,-7.6,13,30.13,10.0,West,6.9,-,N/A,,Overcast,270,2012-12-31 22:35:00
5:55 PM,40.6,-6.9,13,30.13,10.0,West,9.2,-,N/A,,Overcast,280,2012-12-31 22:55:00
6:15 PM,40.3,-6.2,14,30.12,10.0,WNW,9.2,-,N/A,,Overcast,290,2012-12-31 23:15:00
6:35 PM,40.6,-6.0,14,30.13,10.0,West,9.2,-,N/A,,Overcast,280,2012-12-31 23:35:00
6:55 PM,40.1,-6.3,14,30.12,10.0,West,8.1,-,N/A,,Scattered Clouds,260,2012-12-31 23:55:00
7:15 PM,39.7,-7.6,13,30.10,10.0,WSW,6.9,-,N/A,,Scattered Clouds,240,2013-01-01 00:15:00
7:35 PM,40.1,-8.7,12,30.10,10.0,WSW,11.5,-,N/A,,Scattered Clouds,240,2013-01-01 00:35:00
7:55 PM,40.8,-7.6,13,30.09,10.0,SW,5.8,-,N/A,,Clear,230,2013-01-01 00:55:00
8:15 PM,40.6,-6.2,14,30.09,10.0,WSW,6.9,-,N/A,,Clear,240,2013-01-01 01:15:00
8:35 PM,38.8,-4.2,16,30.08,10.0,Calm,Calm,-,N/A,,Scattered Clouds,0,2013-01-01 01:35:00
8:55 PM,37.4,-0.6,20,30.08,10.0,Calm,Calm,-,N/A,,Mostly Cloudy,0,2013-01-01 01:55:00
9:35 PM,37.2,1.0,22,30.07,10.0,Calm,Calm,-,N/A,,Overcast,0,2013-01-01 02:35:00
9:55 PM,36.7,-0.0,21,30.06,10.0,Calm,Calm,-,N/A,,Overcast,0,2013-01-01 02:55:00
10:35 PM,36.9,-0.2,21,30.06,10.0,Calm,Calm,-,N/A,,Overcast,0,2013-01-01 03:35:00
10:55 PM,38.1,-0.0,20,30.06,10.0,SW,3.5,-,N/A,,Overcast,220,2013-01-01 03:55:00
11:15 PM,37.0,5.5,27,30.06,10.0,Calm,Calm,-,N/A,,Overcast,0,2013-01-01 04:15:00
11:35 PM,37.6,2.5,23,30.05,10.0,Calm,Calm,-,N/A,,Scattered Clouds,0,2013-01-01 04:35:00
11:55 PM,39.6,2.7,21,30.04,10.0,Calm,Calm,-,N/A,,Scattered Clouds,0,2013-01-01 04:55:00